Time,TemperatureF,DewpointF,PressureIn,WindDirection,WindDirectionDegrees,WindSpeedMPH,WindSpeedGustMPH,Humidity,HourlyPrecipIn,Conditions,Clouds,dailyrainin,SoftwareType,DateUTC
2013-08-24 00:04:00,66.0,-99.9,-100.00,NE,45,2.0,7.0,-999,-99.99,,,-99.99,,2013-08-24 04:04:00,
2013-08-24 00:14:00,66.0,-99.9,-100.00,NE,45,2.0,7.0,-999,-99.99,,,-99.99,,2013-08-24 04:14:00,
2013-08-24 00:54:00,66.0,-99.9,-100.00,NE,55,2.0,6.0,-999,-99.99,,,-99.99,,2013-08-24 04:54:00,
2013-08-24 01:03:00,66.0,-99.9,-100.00,NE,55,2.0,6.0,-999,-99.99,,,-99.99,,2013-08-24 05:03:00,
2013-08-24 01:23:00,65.0,-99.9,-100.00,ENE,69,2.0,5.0,-999,-99.99,,,-99.99,,2013-08-24 05:23:00,
2013-08-24 01:33:00,65.0,-99.9,-100.00,ENE,69,2.0,5.0,-999,-99.99,,,-99.99,,2013-08-24 05:33:00,
2013-08-24 01:43:00,65.0,-99.9,-100.00,ENE,69,2.0,5.0,-999,-99.99,,,-99.99,,2013-08-24 05:43:00,
2013-08-24 01:53:00,65.0,-99.9,-100.00,NE,53,2.0,4.0,-999,-99.99,,,-99.99,,2013-08-24 05:53:00,
2013-08-24 02:03:00,65.0,-99.9,-100.00,NE,53,2.0,4.0,-999,-99.99,,,-99.99,,2013-08-24 06:03:00,
2013-08-24 02:22:00,63.0,-99.9,-100.00,ENE,62,1.0,3.0,-999,-99.99,,,-99.99,,2013-08-24 06:22:00,
2013-08-24 02:32:00,63.0,-99.9,-100.00,ENE,62,1.0,3.0,-999,-99.99,,,-99.99,,2013-08-24 06:32:00,
2013-08-24 02:52:00,63.0,-99.9,-100.00,ENE,66,2.0,5.0,-999,-99.99,,,-99.99,,2013-08-24 06:52:00,
2013-08-24 03:12:00,62.0,-99.9,-100.00,ENE,76,1.0,4.0,-999,-99.99,,,-99.99,,2013-08-24 07:12:00,
2013-08-24 03:22:00,61.0,-99.9,-100.00,ENE,70,1.0,3.0,-999,-99.99,,,-99.99,,2013-08-24 07:22:00,
2013-08-24 03:32:00,61.0,-99.9,-100.00,ENE,70,1.0,3.0,-999,-99.99,,,-99.99,,2013-08-24 07:32:00,
2013-08-24 03:53:00,62.0,-99.9,-100.00,ENE,76,1.0,4.0,-999,-99.99,,,-99.99,,2013-08-24 07:53:00,
2013-08-24 04:12:00,61.0,-99.9,-100.00,ENE,74,0.0,3.0,-999,-99.99,,,-99.99,,2013-08-24 08:12:00,
2013-08-24 04:22:00,60.0,-99.9,-100.00,ESE,104,0.0,2.0,-999,-99.99,,,-99.99,,2013-08-24 08:22:00,
2013-08-24 04:32:00,60.0,-99.9,-100.00,ESE,104,0.0,2.0,-999,-99.99,,,-99.99,,2013-08-24 08:32:00,
2013-08-24 04:42:00,60.0,-99.9,-100.00,ESE,104,0.0,2.0,-999,-99.99,,,-99.99,,2013-08-24 08:42:00,
2013-08-24 04:52:00,61.0,-99.9,-100.00,ENE,74,0.0,3.0,-999,-99.99,,,-99.99,,2013-08-24 08:52:00,
2013-08-24 05:11:00,60.0,-99.9,-100.00,North,-999,0.0,2.0,-999,-99.99,,,-99.99,,2013-08-24 09:11:00,
2013-08-24 05:23:00,59.0,-99.9,-100.00,North,-999,0.0,2.0,-999,-99.99,,,-99.99,,2013-08-24 09:23:00,
2013-08-24 05:34:00,59.0,-99.9,-100.00,North,-999,0.0,2.0,-999,-99.99,,,-99.99,,2013-08-24 09:34:00,
2013-08-24 05:44:00,59.0,-99.9,-100.00,North,-999,0.0,2.0,-999,-99.99,,,-99.99,,2013-08-24 09:44:00,
2013-08-24 05:53:00,60.0,-99.9,-100.00,North,-999,0.0,2.0,-999,-99.99,,,-99.99,,2013-08-24 09:53:00,
2013-08-24 06:04:00,60.0,-99.9,-100.00,North,-999,0.0,2.0,-999,-99.99,,,-99.99,,2013-08-24 10:04:00,
2013-08-24 06:23:00,59.0,-99.9,-100.00,East,101,0.0,2.0,-999,-99.99,,,-99.99,,2013-08-24 10:23:00,
2013-08-24 06:33:00,59.0,-99.9,-100.00,East,101,0.0,2.0,-999,-99.99,,,-99.99,,2013-08-24 10:33:00,
2013-08-24 06:53:00,59.0,-99.9,-100.00,ESE,121,0.0,2.0,-999,-99.99,,,-99.99,,2013-08-24 10:53:00,
2013-08-24 07:12:00,59.0,-99.9,-100.00,ESE,108,0.0,4.0,-999,-99.99,,,-99.99,,2013-08-24 11:12:00,
2013-08-24 07:22:00,59.0,-99.9,-100.00,East,90,0.0,6.0,-999,-99.99,,,-99.99,,2013-08-24 11:22:00,
2013-08-24 07:33:00,59.0,-99.9,-100.00,East,90,0.0,6.0,-999,-99.99,,,-99.99,,2013-08-24 11:33:00,
2013-08-24 07:52:00,59.0,-99.9,-100.00,ESE,108,0.0,4.0,-999,-99.99,,,-99.99,,2013-08-24 11:52:00,
2013-08-24 08:12:00,59.0,-99.9,-100.00,NE,37,0.0,6.0,-999,-99.99,,,-99.99,,2013-08-24 12:12:00,
2013-08-24 08:22:00,61.0,-99.9,-100.00,ESE,117,0.0,4.0,-999,-99.99,,,-99.99,,2013-08-24 12:22:00,
2013-08-24 08:32:00,61.0,-99.9,-100.00,ESE,117,0.0,4.0,-999,-99.99,,,-99.99,,2013-08-24 12:32:00,
2013-08-24 09:22:00,64.0,-99.9,-100.00,SSE,165,1.0,7.0,-999,-99.99,,,-99.99,,2013-08-24 13:22:00,
2013-08-24 09:32:00,64.0,-99.9,-100.00,SSE,165,1.0,7.0,-999,-99.99,,,-99.99,,2013-08-24 13:32:00,
2013-08-24 09:52:00,63.0,-99.9,-100.00,SE,135,1.0,7.0,-999,-99.99,,,-99.99,,2013-08-24 13:52:00,
2013-08-24 10:11:00,67.0,-99.9,-100.00,SSE,148,1.0,9.0,-999,-99.99,,,-99.99,,2013-08-24 14:11:00,
2013-08-24 10:22:00,69.0,-99.9,-100.00,SE,142,1.0,5.0,-999,-99.99,,,-99.99,,2013-08-24 14:22:00,
2013-08-24 10:42:00,67.0,-99.9,-100.00,SSE,148,1.0,9.0,-999,-99.99,,,-99.99,,2013-08-24 14:42:00,
2013-08-24 10:52:00,67.0,-99.9,-100.00,SSE,148,1.0,9.0,-999,-99.99,,,-99.99,,2013-08-24 14:52:00,
2013-08-24 11:12:00,73.0,-99.9,-100.00,SSE,164,3.0,7.0,-999,-99.99,,,-99.99,,2013-08-24 15:12:00,
2013-08-24 11:22:00,74.0,-99.9,-100.00,South,184,1.0,8.0,-999,-99.99,,,-99.99,,2013-08-24 15:22:00,
2013-08-24 11:34:00,74.0,-99.9,-100.00,South,184,1.0,8.0,-999,-99.99,,,-99.99,,2013-08-24 15:34:00,
2013-08-24 11:55:00,73.0,-99.9,-100.00,SSE,164,3.0,7.0,-999,-99.99,,,-99.99,,2013-08-24 15:55:00,
2013-08-24 12:04:00,73.0,-99.9,-100.00,SSE,164,3.0,7.0,-999,-99.99,,,-99.99,,2013-08-24 16:04:00,
2013-08-24 12:14:00,73.0,-99.9,-100.00,SSE,164,3.0,7.0,-999,-99.99,,,-99.99,,2013-08-24 16:14:00,
2013-08-24 12:23:00,78.0,-99.9,-100.00,South,174,4.0,7.0,-999,-99.99,,,-99.99,,2013-08-24 16:23:00,
2013-08-24 12:33:00,78.0,-99.9,-100.00,South,174,4.0,7.0,-999,-99.99,,,-99.99,,2013-08-24 16:33:00,
2013-08-24 12:53:00,77.0,-99.9,-100.00,South,184,5.0,9.0,-999,-99.99,,,-99.99,,2013-08-24 16:53:00,
2013-08-24 13:02:00,77.0,-99.9,-100.00,South,184,5.0,9.0,-999,-99.99,,,-99.99,,2013-08-24 17:02:00,
2013-08-24 13:23:00,79.0,-99.9,-100.00,South,178,4.0,9.0,-999,-99.99,,,-99.99,,2013-08-24 17:23:00,
2013-08-24 13:52:00,79.0,-99.9,-100.00,South,170,2.0,10.0,-999,-99.99,,,-99.99,,2013-08-24 17:52:00,
2013-08-24 14:03:00,79.0,-99.9,-100.00,South,170,2.0,10.0,-999,-99.99,,,-99.99,,2013-08-24 18:03:00,
2013-08-24 14:10:00,75.0,-99.9,-100.00,NW,317,4.0,12.0,-999,-99.99,,,-99.99,,2013-08-24 18:10:00,
2013-08-24 14:13:00,79.0,-99.9,-100.00,South,170,2.0,10.0,-999,-99.99,,,-99.99,,2013-08-24 18:13:00,
2013-08-24 14:22:00,74.0,-99.9,-100.00,NW,319,2.0,4.0,-999,-99.99,,,-99.99,,2013-08-24 18:22:00,
2013-08-24 14:42:00,75.0,-99.9,-100.00,NW,317,4.0,12.0,-999,-99.99,,,-99.99,,2013-08-24 18:42:00,
2013-08-24 14:53:00,75.0,-99.9,-100.00,NW,317,4.0,12.0,-999,-99.99,,,-99.99,,2013-08-24 18:53:00,
2013-08-24 15:01:00,75.0,-99.9,-100.00,NW,317,4.0,12.0,-999,-99.99,,,-99.99,,2013-08-24 19:01:00,
2013-08-24 15:22:00,75.0,-99.9,-100.00,WNW,294,4.0,4.0,-999,-99.99,,,-99.99,,2013-08-24 19:22:00,
2013-08-24 15:32:00,75.0,-99.9,-100.00,WNW,294,4.0,4.0,-999,-99.99,,,-99.99,,2013-08-24 19:32:00,
2013-08-24 15:52:00,74.0,-99.9,-100.00,WNW,285,4.0,5.0,-999,-99.99,,,-99.99,,2013-08-24 19:52:00,
2013-08-24 16:12:00,75.0,-99.9,-100.00,North,353,4.0,7.0,-999,-99.99,,,-99.99,,2013-08-24 20:12:00,
2013-08-24 16:22:00,75.0,-99.9,-100.00,NNW,339,4.0,6.0,-999,-99.99,,,-99.99,,2013-08-24 20:22:00,
2013-08-24 16:32:00,75.0,-99.9,-100.00,NNW,339,4.0,6.0,-999,-99.99,,,-99.99,,2013-08-24 20:32:00,
2013-08-24 16:42:00,75.0,-99.9,-100.00,NNW,339,4.0,6.0,-999,-99.99,,,-99.99,,2013-08-24 20:42:00,
2013-08-24 16:53:00,75.0,-99.9,-100.00,North,353,4.0,7.0,-999,-99.99,,,-99.99,,2013-08-24 20:53:00,
2013-08-24 17:02:00,75.0,-99.9,-100.00,North,353,4.0,7.0,-999,-99.99,,,-99.99,,2013-08-24 21:02:00,
2013-08-24 17:11:00,75.0,-99.9,-100.00,North,353,4.0,7.0,-999,-99.99,,,-99.99,,2013-08-24 21:11:00,
2013-08-24 17:22:00,75.0,-99.9,-100.00,North,351,5.0,7.0,-999,-99.99,,,-99.99,,2013-08-24 21:22:00,
2013-08-24 17:34:00,75.0,-99.9,-100.00,North,351,5.0,7.0,-999,-99.99,,,-99.99,,2013-08-24 21:34:00,
2013-08-24 17:43:00,75.0,-99.9,-100.00,North,351,5.0,7.0,-999,-99.99,,,-99.99,,2013-08-24 21:43:00,
2013-08-24 17:55:00,74.0,-99.9,-100.00,NNW,347,5.0,8.0,-999,-99.99,,,-99.99,,2013-08-24 21:55:00,
2013-08-24 18:04:00,74.0,-99.9,-100.00,NNW,347,5.0,8.0,-999,-99.99,,,-99.99,,2013-08-24 22:04:00,
2013-08-24 18:24:00,76.0,-99.9,-100.00,NNW,347,5.0,7.0,-999,-99.99,,,-99.99,,2013-08-24 22:24:00,
2013-08-24 19:12:00,76.0,-99.9,-100.00,North,354,6.0,8.0,-999,-99.99,,,-99.99,,2013-08-24 23:12:00,
2013-08-24 19:22:00,76.0,-99.9,-100.00,North,351,4.0,5.0,-999,-99.99,,,-99.99,,2013-08-24 23:22:00,
2013-08-24 19:34:00,76.0,-99.9,-100.00,North,351,4.0,5.0,-999,-99.99,,,-99.99,,2013-08-24 23:34:00,
2013-08-24 19:53:00,76.0,-99.9,-100.00,NNW,341,4.0,7.0,-999,-99.99,,,-99.99,,2013-08-24 23:53:00,
2013-08-24 20:12:00,77.0,-99.9,-100.00,NNW,343,1.0,5.0,-999,-99.99,,,-99.99,,2013-08-25 00:12:00,
2013-08-24 20:22:00,78.0,-99.9,-100.00,NE,42,0.0,1.0,-999,-99.99,,,-99.99,,2013-08-25 00:22:00,
2013-08-24 20:32:00,78.0,-99.9,-100.00,NE,42,0.0,1.0,-999,-99.99,,,-99.99,,2013-08-25 00:32:00,
2013-08-24 20:52:00,77.0,-99.9,-100.00,NNW,343,1.0,5.0,-999,-99.99,,,-99.99,,2013-08-25 00:52:00,
2013-08-24 21:12:00,73.0,-99.9,-100.00,North,-999,0.0,2.0,-999,-99.99,,,-99.99,,2013-08-25 01:12:00,
2013-08-24 21:22:00,72.0,-99.9,-100.00,North,-999,0.0,0.0,-999,-99.99,,,-99.99,,2013-08-25 01:22:00,
2013-08-24 21:32:00,72.0,-99.9,-100.00,North,-999,0.0,0.0,-999,-99.99,,,-99.99,,2013-08-25 01:32:00,
2013-08-24 22:22:00,70.0,-99.9,-100.00,North,-999,0.0,0.0,-999,-99.99,,,-99.99,,2013-08-25 02:22:00,
2013-08-24 22:33:00,70.0,-99.9,-100.00,North,-999,0.0,0.0,-999,-99.99,,,-99.99,,2013-08-25 02:33:00,
2013-08-24 22:52:00,70.0,-99.9,-100.00,North,-999,0.0,0.0,-999,-99.99,,,-99.99,,2013-08-25 02:52:00,
2013-08-24 23:11:00,69.0,-99.9,-100.00,East,93,0.0,1.0,-999,-99.99,,,-99.99,,2013-08-25 03:11:00,
2013-08-24 23:23:00,69.0,-99.9,-100.00,SE,128,0.0,2.0,-999,-99.99,,,-99.99,,2013-08-25 03:23:00,
2013-08-24 23:34:00,69.0,-99.9,-100.00,SE,128,0.0,2.0,-999,-99.99,,,-99.99,,2013-08-25 03:34:00,
2013-08-24 23:54:00,69.0,-99.9,-100.00,East,93,0.0,1.0,-999,-99.99,,,-99.99,,2013-08-25 03:54:00,